Location: Augustenthal
(51.7167°N, 10.2833°E)
Time: 18:30:53
(UTC+00:00)

Cosmos 2298 Rocket - Pass Details

Date: 18 May 2021
Orbit: 776 x 784 km, 74.0° (Epoch: 20 June)

Event Time Altitude Azimuth Distance (km) Brightness Sun altitude
Exits shadow 22:02:56 22° 196° (SSW) 1,630 5.2 -16.8°
Maximum altitude 22:06:22 79° 112° (ESE) 796 4.0 -16.9°
Drops below altitude 10° 22:11:40 10° 27° (NNE) 2,338 7.2 -17.2°
Sets 22:14:04 0° 26° (NNE) 3,270 8.0 -17.3°
